| time (UTC) | temp F | wind direction | speed knots | gust knots | rain 1hr in | rain 24hr in | rain mn in | humidity % | barometer mb |
| 20260904124003 | 63 | 348 | 0.0 | 2.6 | 0.00 | 0.04 | 0.02 | 99 | 1014.2 |
| 20260904123004 | 63 | 11 | 0.9 | 2.6 | 0.00 | 0.04 | 0.02 | 99 | 1014.1 |
| 20260904122004 | 63 | 7 | 0.9 | 2.6 | 0.00 | 0.04 | 0.02 | 99 | 1014.2 |
| 20260904121003 | 63 | 358 | 0.9 | 2.6 | 0.00 | 0.04 | 0.02 | 99 | 1014.4 |
| 20260904115004 | 64 | 9 | 0.9 | 2.6 | 0.00 | 0.04 | 0.02 | 99 | 1014.5 |
| 20260904114004 | 64 | 325 | 0.9 | 1.7 | 0.00 | 0.04 | 0.02 | 99 | 1014.3 |
| 20260904113004 | 64 | 356 | 0.9 | 1.7 | 0.00 | 0.04 | 0.02 | 99 | 1013.7 |
| 20260904112003 | 64 | 27 | 0.9 | 1.7 | 0.00 | 0.04 | 0.02 | 99 | 1013.6 |
| 20260904111004 | 64 | 321 | 0.0 | 1.7 | 0.00 | 0.04 | 0.02 | 99 | 1013.7 |
| 20260904110004 | 64 | 352 | 0.9 | 1.7 | 0.00 | 0.04 | 0.02 | 99 | 1013.9 |
| 20260904105004 | 63 | 26 | 0.9 | 2.6 | 0.00 | 0.04 | 0.02 | 99 | 1013.8 |
| 20260904104004 | 63 | 15 | 0.9 | 1.7 | 0.00 | 0.04 | 0.02 | 99 | 1013.7 |
| 20260904103004 | 63 | 39 | 0.9 | 1.7 | 0.00 | 0.04 | 0.02 | 99 | 1013.8 |
| 20260904101004 | 63 | 2 | 0.9 | 1.7 | 0.00 | 0.04 | 0.02 | 99 | 1014.2 |
| 20260904100004 | 63 | 13 | 0.9 | 2.6 | 0.00 | 0.04 | 0.02 | 99 | 1014.0 |
| 20260904095004 | 63 | 84 | 0.9 | 2.6 | 0.00 | 0.04 | 0.02 | 99 | 1014.3 |
| 20260904094004 | 63 | 40 | 1.7 | 2.6 | 0.00 | 0.04 | 0.02 | 99 | 1014.3 |
| 20260904093004 | 63 | 96 | 0.9 | 2.6 | 0.00 | 0.04 | 0.02 | 99 | 1014.6 |
| 20260904092004 | 62 | 23 | 0.9 | 2.6 | 0.00 | 0.04 | 0.02 | 99 | 1014.7 |
| 20260904091004 | 62 | 13 | 0.9 | 2.6 | 0.00 | 0.04 | 0.02 | 99 | 1014.4 |
| 20260904090004 | 63 | 39 | 0.9 | 2.6 | 0.00 | 0.04 | 0.02 | 99 | 1015.4 |
| 20260904083004 | 63 | 31 | 0.9 | 1.7 | 0.00 | 0.04 | 0.02 | 99 | 1014.7 |
| 20260904082004 | 63 | 23 | 0.9 | 1.7 | 0.00 | 0.04 | 0.02 | 99 | 1014.4 |
| 20260904081004 | 63 | 1 | 0.9 | 1.7 | 0.00 | 0.04 | 0.02 | 99 | 1014.1 |
| 20260904080004 | 63 | 6 | 0.9 | 1.7 | 0.00 | 0.04 | 0.02 | 99 | 1014.3 |
| 20260904075004 | 63 | 30 | 0.9 | 1.7 | 0.00 | 0.04 | 0.02 | 99 | 1014.4 |
| 20260904074004 | 63 | 344 | 0.9 | 1.7 | 0.00 | 0.04 | 0.02 | 99 | 1014.7 |
| 20260904073004 | 63 | 348 | 0.9 | 1.7 | 0.01 | 0.04 | 0.02 | 99 | 1014.5 |
| 20260904072004 | 63 | 288 | 0.9 | 1.7 | 0.01 | 0.04 | 0.02 | 99 | 1014.2 |
| 20260904070004 | 63 | 22 | 0.9 | 1.7 | 0.01 | 0.04 | 0.02 | 99 | 1014.1 |
| 20260904065004 | 63 | 5 | 0.9 | 1.7 | 0.01 | 0.04 | 0.02 | 99 | 1014.3 |
| 20260904064004 | 63 | 0 | 0.0 | 1.7 | 0.01 | 0.03 | 0.02 | 99 | 1014.3 |
| 20260904063003 | 63 | 350 | 0.9 | 1.7 | 0.01 | 0.02 | 0.01 | 99 | 1013.8 |
| 20260904062003 | 63 | 11 | 0.9 | 1.7 | 0.01 | 0.02 | 0.01 | 99 | 1013.5 |
| 20260904061004 | 64 | 19 | 0.0 | 2.6 | 0.01 | 0.02 | 0.01 | 99 | 1013.7 |
| 20260904055004 | 64 | 5 | 0.9 | 1.7 | 0.01 | 0.02 | 0.01 | 99 | 1014.8 |
| 20260904054004 | 64 | 53 | 0.9 | 1.7 | 0.00 | 0.02 | 0.00 | 99 | 1014.5 |
| 20260904053004 | 64 | 32 | 1.7 | 1.7 | 0.00 | 0.02 | 0.00 | 99 | 1014.7 |
| 20260904052003 | 64 | 28 | 0.9 | 1.7 | 0.00 | 0.02 | 0.00 | 99 | 1014.9 |
| 20260904051004 | 64 | 0 | 1.7 | 1.7 | 0.00 | 0.02 | 0.00 | 99 | 1014.7 |
| 20260904050004 | 64 | 13 | 0.9 | 1.7 | 0.00 | 0.02 | 0.00 | 99 | 1015.1 |
| 20260904045004 | 64 | 314 | 1.7 | 1.7 | 0.00 | 0.02 | 0.02 | 99 | 1015.0 |
| 20260904044004 | 64 | 23 | 0.9 | 1.7 | 0.00 | 0.02 | 0.02 | 99 | 1015.1 |
| 20260904043004 | 64 | 334 | 0.9 | 1.7 | 0.00 | 0.02 | 0.02 | 99 | 1015.3 |
| 20260904042004 | 64 | 339 | 0.9 | 0.9 | 0.00 | 0.02 | 0.02 | 99 | 1015.4 |
| 20260904041004 | 64 | 347 | 0.0 | 1.7 | 0.00 | 0.02 | 0.02 | 99 | 1015.4 |
| 20260904040004 | 64 | 315 | 0.0 | 1.7 | 0.00 | 0.02 | 0.02 | 99 | 1015.4 |
| 20260904035004 | 64 | 22 | 0.9 | 1.7 | 0.00 | 0.02 | 0.02 | 99 | 1015.2 |
| 20260904034003 | 64 | 17 | 0.9 | 1.7 | 0.00 | 0.02 | 0.02 | 99 | 1015.4 |
| 20260904033004 | 64 | 45 | 0.9 | 1.7 | 0.00 | 0.02 | 0.02 | 99 | 1014.9 |
| 20260904032004 | 64 | 46 | 0.9 | 1.7 | 0.00 | 0.02 | 0.02 | 99 | 1015.3 |
| 20260904031004 | 64 | 11 | 0.9 | 1.7 | 0.00 | 0.02 | 0.02 | 99 | 1015.2 |
| 20260904025004 | 64 | 341 | 0.9 | 1.7 | 0.00 | 0.02 | 0.02 | 99 | 1015.6 |
| 20260904024005 | 64 | 34 | 0.0 | 1.7 | 0.00 | 0.02 | 0.02 | 99 | 1015.4 |
| 20260904023003 | 64 | 303 | 0.9 | 1.7 | 0.00 | 0.02 | 0.02 | 99 | 1015.7 |
| 20260904022004 | 64 | 21 | 0.0 | 0.9 | 0.00 | 0.02 | 0.02 | 99 | 1015.5 |
| 20260904021003 | 65 | 24 | 0.9 | 0.9 | 0.00 | 0.02 | 0.02 | 99 | 1015.1 |
| 20260904020004 | 65 | 0 | 0.0 | 0.9 | 0.00 | 0.02 | 0.02 | 99 | 1015.4 |
| 20260904015004 | 65 | 355 | 0.9 | 0.9 | 0.00 | 0.02 | 0.02 | 99 | 1015.5 |
| 20260904014004 | 65 | 359 | 0.0 | 0.9 | 0.00 | 0.02 | 0.02 | 99 | 1015.6 |
| 20260904013004 | 66 | 11 | 0.9 | 0.9 | 0.00 | 0.02 | 0.02 | 99 | 1015.4 |
| 20260904011004 | 66 | 312 | 0.0 | 0.9 | 0.00 | 0.02 | 0.02 | 98 | 1015.3 |
| 20260904005003 | 67 | 355 | 0.0 | 0.9 | 0.00 | 0.02 | 0.02 | 97 | 1014.9 |
| 20260904004004 | 67 | 29 | 0.0 | 0.9 | 0.00 | 0.02 | 0.02 | 97 | 1014.8 |
| 20260904002004 | 68 | 11 | 0.0 | 1.7 | 0.00 | 0.02 | 0.02 | 95 | 1015.0 |
| 20260903235003 | 69 | 73 | 0.9 | 1.7 | 0.00 | 0.02 | 0.02 | 93 | 1014.6 |
| 20260903234004 | 69 | 267 | 0.9 | 2.6 | 0.00 | 0.02 | 0.02 | 93 | 1014.6 |
| 20260903233003 | 70 | 48 | 0.9 | 1.7 | 0.00 | 0.02 | 0.02 | 91 | 1014.6 |
| 20260903232004 | 70 | 344 | 0.0 | 1.7 | 0.00 | 0.02 | 0.02 | 91 | 1014.7 |
| 20260903231004 | 71 | 315 | 0.0 | 1.7 | 0.00 | 0.02 | 0.02 | 89 | 1014.7 |
| 20260903230003 | 71 | 12 | 0.0 | 1.7 | 0.00 | 0.02 | 0.02 | 89 | 1014.6 |
| 20260903224004 | 71 | 10 | 0.9 | 1.7 | 0.00 | 0.02 | 0.02 | 87 | 1014.1 |
| 20260903223003 | 72 | 6 | 0.9 | 2.6 | 0.00 | 0.02 | 0.02 | 88 | 1014.2 |
| 20260903222003 | 72 | 103 | 1.7 | 2.6 | 0.00 | 0.02 | 0.02 | 84 | 1014.2 |
| 20260903221003 | 73 | 29 | 1.7 | 2.6 | 0.00 | 0.02 | 0.02 | 84 | 1014.3 |
| 20260903220004 | 72 | 109 | 0.9 | 2.6 | 0.00 | 0.02 | 0.02 | 87 | 1014.5 |
| 20260903215004 | 73 | 68 | 0.9 | 2.6 | 0.00 | 0.02 | 0.02 | 86 | 1014.5 |
| 20260903214004 | 73 | 81 | 1.7 | 2.6 | 0.00 | 0.02 | 0.02 | 87 | 1014.4 |
| 20260903212004 | 72 | 48 | 1.7 | 2.6 | 0.00 | 0.02 | 0.02 | 88 | 1014.2 |
| 20260903211003 | 72 | 311 | 1.7 | 2.6 | 0.00 | 0.02 | 0.02 | 89 | 1014.5 |
| 20260903210003 | 71 | 62 | 0.9 | 2.6 | 0.00 | 0.02 | 0.02 | 90 | 1014.5 |
| 20260903205004 | 71 | 82 | 1.7 | 4.3 | 0.00 | 0.02 | 0.02 | 91 | 1014.4 |
| 20260903203004 | 71 | 58 | 0.9 | 4.3 | 0.00 | 0.02 | 0.02 | 91 | 1014.3 |
| 20260903201004 | 71 | 195 | 0.9 | 4.3 | 0.00 | 0.02 | 0.02 | 92 | 1014.8 |
| 20260903195003 | 71 | 262 | 0.9 | 4.3 | 0.00 | 0.02 | 0.02 | 89 | 1014.7 |
| 20260903194004 | 71 | 48 | 1.7 | 4.3 | 0.00 | 0.02 | 0.02 | 91 | 1014.9 |
| 20260903193004 | 72 | 300 | 0.0 | 1.7 | 0.00 | 0.02 | 0.02 | 89 | 1015.2 |
| 20260903192004 | 71 | 160 | 0.9 | 2.6 | 0.00 | 0.02 | 0.02 | 91 | 1014.9 |
| 20260903191004 | 71 | 34 | 0.9 | 2.6 | 0.00 | 0.02 | 0.02 | 92 | 1014.9 |
| 20260903190004 | 70 | 41 | 0.9 | 2.6 | 0.00 | 0.02 | 0.02 | 93 | 1015.0 |
| 20260903185003 | 71 | 328 | 0.9 | 5.2 | 0.00 | 0.02 | 0.02 | 91 | 1015.3 |
| 20260903184004 | 71 | 30 | 0.9 | 6.1 | 0.00 | 0.02 | 0.02 | 89 | 1015.0 |
| 20260903183004 | 72 | 337 | 1.7 | 8.7 | 0.00 | 0.02 | 0.02 | 89 | 1014.8 |
| 20260903182004 | 72 | 83 | 0.9 | 4.3 | 0.00 | 0.02 | 0.02 | 91 | 1014.5 |
| 20260903181004 | 71 | 91 | 1.7 | 6.1 | 0.00 | 0.02 | 0.02 | 94 | 1014.4 |
| 20260903180003 | 70 | 26 | 0.9 | 4.3 | 0.01 | 0.02 | 0.02 | 96 | 1014.6 |
| 20260903175003 | 69 | 81 | 1.7 | 2.6 | 0.02 | 0.02 | 0.02 | 97 | 1014.6 |
| 20260903174003 | 69 | 338 | 1.7 | 4.3 | 0.02 | 0.02 | 0.02 | 98 | 1014.6 |
| 20260903173004 | 68 | 104 | 0.9 | 1.7 | 0.02 | 0.02 | 0.02 | 99 | 1014.6 |
| 20260903172004 | 67 | 22 | 0.9 | 1.7 | 0.02 | 0.02 | 0.02 | 99 | 1014.4 |
| 20260903171003 | 67 | 302 | 0.9 | 1.7 | 0.01 | 0.01 | 0.01 | 99 | 1015.3 |
| 20260903170004 | 67 | 345 | 0.9 | 2.6 | 0.01 | 0.01 | 0.01 | 99 | 1015.2 |
| 20260903165004 | 66 | 294 | 0.9 | 1.7 | 0.00 | 0.00 | 0.00 | 99 | 1015.6 |
| 20260903164003 | 66 | 12 | 1.7 | 1.7 | 0.00 | 0.00 | 0.00 | 98 | 1015.6 |
| 20260903163003 | 67 | 314 | 0.9 | 1.7 | 0.00 | 0.00 | 0.00 | 98 | 1015.9 |
| 20260903162004 | 67 | 348 | 0.9 | 1.7 | 0.00 | 0.00 | 0.00 | 97 | 1015.4 |
| 20260903161003 | 67 | 336 | 1.7 | 1.7 | 0.00 | 0.00 | 0.00 | 97 | 1015.5 |
| 20260903160004 | 67 | 310 | 0.0 | 0.9 | 0.00 | 0.00 | 0.00 | 96 | 1015.3 |
| 20260903155004 | 67 | 340 | 0.0 | 0.9 | 0.00 | 0.00 | 0.00 | 96 | 1015.3 |
| 20260903153004 | 67 | 348 | 0.9 | 0.9 | 0.00 | 0.00 | 0.00 | 93 | 1015.6 |
| 20260903152003 | 68 | 26 | 0.9 | 1.7 | 0.00 | 0.00 | 0.00 | 92 | 1015.4 |
| 20260903151004 | 68 | 312 | 1.7 | 1.7 | 0.00 | 0.00 | 0.00 | 92 | 1015.1 |
| 20260903150004 | 68 | 14 | 0.0 | 1.7 | 0.00 | 0.00 | 0.00 | 92 | 1015.1 |
| 20260903144004 | 68 | 299 | 0.9 | 1.7 | 0.00 | 0.00 | 0.00 | 91 | 1014.7 |
| 20260903143004 | 68 | 348 | 0.9 | 2.6 | 0.00 | 0.00 | 0.00 | 91 | 1014.7 |
| 20260903142004 | 68 | 53 | 0.9 | 1.7 | 0.00 | 0.00 | 0.00 | 91 | 1014.5 |
| 20260903141004 | 67 | 35 | 0.9 | 1.7 | 0.00 | 0.00 | 0.00 | 91 | 1014.6 |
| 20260903140004 | 67 | 1 | 0.9 | 1.7 | 0.00 | 0.00 | 0.00 | 92 | 1014.8 |
| 20260903135003 | 67 | 349 | 0.0 | 1.7 | 0.00 | 0.00 | 0.00 | 92 | 1014.9 |
| 20260903134004 | 66 | 10 | 0.9 | 0.9 | 0.00 | 0.00 | 0.00 | 92 | 1015.0 |
| 20260903133004 | 66 | 24 | 0.0 | 1.7 | 0.00 | 0.00 | 0.00 | 92 | 1014.8 |
| 20260903132004 | 66 | 3 | 0.9 | 1.7 | 0.00 | 0.00 | 0.00 | 92 | 1014.9 |
| 20260903131004 | 66 | 314 | 0.9 | 1.7 | 0.00 | 0.00 | 0.00 | 93 | 1014.9 |
| 20260903130004 | 65 | 16 | 0.9 | 1.7 | 0.00 | 0.00 | 0.00 | 93 | 1014.8 |
| 20260903125004 | 65 | 6 | 0.9 | 1.7 | 0.00 | 0.00 | 0.00 | 93 | 1014.9 |